Regional Weather Roundup
Issued by NWS Kansas City/Pleasant Hill, MO

Home | Current Version | Previous Version | Text Only | Print | Product List | Glossary On
Versions: 1 2 3 4 5 6 7 8 9 10 11 12 13 14 15 16 17 18 19 20 21 22 23 24 25 26 27 28 29 30 31 32 33 34 35 36 37 38 39 40 41 42 43 44 45 46 47 48 49 50
000
ASUS43 KEAX 232211
RWREAX

WEATHER ROUNDUP FOR EASTERN KANSAS AND NORTHWEST MISSOURI
NATIONAL WEATHER SERVICE KANSAS CITY/PLEASANT HILL MO
500 PM CDT THU OCT 23 2014

KSZ040-057-103>105-MOZ028-029-037-043-232300-
...KANSAS CITY METROPOLITAN AREA...

CITY           SKY/WX    TMP DP  RH WIND       PRES   REMARKS
K.C. INTL      MOSUNNY   64  61  90 S7        30.04F
K.C. DOWNTOWN  PTSUNNY   66  61  84 S8        30.04F
LEES SUMMIT    CLOUDY    64  59  83 SW8       30.06F
OLATHE - IXD   CLOUDY    65  61  87 S7        30.06F
OLATHE - OJC   CLOUDY    65  60  84 SW7       30.05F
LAWRENCE       PTSUNNY   68  62  81 SW7       30.04F

$$

MOZ001>008-011>017-020>025-030>033-038>040-044>046-053-054-232300-
...NORTHERN AND CENTRAL MISSOURI...

CITY           SKY/WX    TMP DP  RH WIND       PRES   REMARKS
ST. JOSEPH     SUNNY     72  58  61 S6        30.02F
MOSBY          MOCLDY    64  61  88 SW3       30.05S
WHITEMAN AFB   CLOUDY    66  58  75 SW9       30.06S
CLINTON        CLOUDY    64  59  82 S6        30.08S HAZE
SEDALIA        CLOUDY    67  57  70 SW12      30.08S
WARSAW         NOT AVBL
MARSHALL       CLOUDY    70  61  73 SW5       30.06F
CHILLICOTHE      N/A     65  59  81 S5        30.06S
MOBERLY        CLOUDY    66  54  63 SW6       30.06
KIRKSVILLE     CLOUDY    65  58  78 SW6       30.05S

$$

MOZ041-047>049-056>058-063>065-088>090-097-232300-
...EASTERN AND SOUTHERN MISSOURI...

CITY           SKY/WX    TMP DP  RH WIND       PRES   REMARKS
ST. LOUIS INTL CLOUDY    64  46  52 S6        30.10F
SPIRIT OF STL  CLOUDY    65  47  52 CALM      30.08F
COLUMBIA       PTSUNNY   62  53  72 S7        30.08S
JEFFERSON CITY PTSUNNY   64  51  62 VRB3      30.08S
ROLLA          PTSUNNY   61  49  64 S8        30.09S
LEBANON        MOSUNNY   63  54  72 S5        30.11F
OSAGE BEACH    PTSUNNY   63  52  67 S7        30.10S
SPRINGFIELD    CLOUDY    62  56  80 S10       30.10S
BRANSON        CLOUDY    64  54  68 SW3       30.13F
NEVADA         CLOUDY    63  57  82 SW6       30.10S
JOPLIN         CLOUDY    61  57  87 S7        30.11S
WEST PLAINS    PTSUNNY   58  45  62 SW5       30.15F

$$

IAZ060-094-KSZ022-034>040-054-083-096-NEZ052-066-093-232300-
...KANSAS...SOUTHEAST NEBRASKA AND IOWA...

CITY           SKY/WX    TMP DP  RH WIND       PRES   REMARKS
TOPEKA         MOSUNNY   71  62  73 S8        30.03S
MANHATTAN      SUNNY     76  57  51 CALM      30.01F
EMPORIA        MOSUNNY   69  60  73 CALM      30.04F
CHANUTE        CLOUDY    65  59  81 S8        30.07F
WICHITA        CLOUDY    73  59  61 S7        30.03S
OMAHA          SUNNY     71  43  36 S3        30.01S
LINCOLN        SUNNY     72  51  47 SE5       30.01F
FALLS CITY     SUNNY     73  52  47 VRB3      30.01S
LAMONI         SUNNY     66  57  72 CALM      30.02F
DES MOINES     MOSUNNY   72  49  44 VRB3      30.00S

$$




USA.gov is the U.S. government's official web portal to all federal, state and local government web resources and services.